Location: Montbazon
(47.2835°N, 0.6999°E)
Time: 06:44:32
(UTC+00:00)

Cosmos 1328 - Pass Details

Date: 08 November 2025
Orbit: 462 x 479 km, 82.5° (Epoch: 12 December)

Event Time Altitude Azimuth Distance (km) Brightness Sun altitude
Rises 05:08:56 0° 200° (SSW) 2,536 7.1 -17.5°
Reaches altitude 10° 05:11:04 10° 206° (SSW) 1,664 6.1 -17.2°
Maximum altitude 05:14:36 50° 282° (WNW) 632 3.7 -16.6°
Drops below altitude 10° 05:18:12 10° 359° (N) 1,684 6.2 -16.0°
Sets 05:20:22 0° 5° (N) 2,570 7.2 -15.6°
